Location: ???????????
(54.6970°N, 39.1477°E)
Time: 11:17:02
(UTC+00:00)

Cosmos 1315 Rocket - Pass Details

Date: 19 May 2025
Orbit: 498 x 525 km, 81.2° (Epoch: 13 June)

Event Time Altitude Azimuth Distance (km) Brightness Sun altitude
Exits shadow 19:19:47 11° 186° (S) 1,688 4.8 -11.1°
Maximum altitude 19:23:29 75° 101° (E) 550 2.7 -11.3°
Drops below altitude 10° 19:27:23 10° 17° (NNE) 1,776 6.1 -11.6°
Sets 19:29:32 0° 16° (NNE) 2,666 7.1 -11.7°
